This demonstration page uses our WeatherBlox Daily Observations layout. Learn more.

40.92945, -100.16068

Hourly Observations for March 24, 2019

Temp ( °F °C ) Dew Point ( °F °C ) Humidity (%) Winds ( mph kmh ) Pressure ( in mb ) Visibility ( mi km ) Precip ( " mm )
12:15 am 00:15 Cloudy 43 6.3 41 5 91 91 N 13 20 29.94 1014 7 11.265408 0 0
12:35 am 00:35 Cloudy 43 6.3 41 5 91 91 NNW 12 19 29.94 1014 7 11.265408 0 0
12:55 am 00:55 Cloudy 43 6.3 41 5 91 91 NNW 13 20 29.97 1015 7 11.265408 0 0
1:15 am 01:15 Cloudy 43 6.1 40 4.6 90 90 NNW 15 24 30 1016 7 11.265408 0 0
1:35 am 01:35 Cloudy 43 6.1 40 4.5 90 90 N 16 26 30 1016 7 11.265408 0 0
1:55 am 01:55 Cloudy 43 6.1 40 4.3 88 88 NNW 15 24 30 1016 7 11.265408 0 0
2:15 am 02:15 Cloudy 43 6 40 4.2 88 88 N 16 26 30 1016 7 11.265408 0 0
2:35 am 02:35 Cloudy 43 6.1 40 4.2 88 88 N 14 22 30 1016 10 16.09344 0 0
2:55 am 02:55 Cloudy 43 6.1 40 4.2 88 88 NNW 15 24 30 1016 7 11.265408 0 0
3:15 am 03:15 Mostly Cloudy 42 5.5 39 3.8 89 89 N 10 17 30 1016 7 11.265408 0 0
3:35 am 03:35 Partly Cloudy 41 5 38 3.3 89 89 WNW 12 19 30 1016 7 11.265408 0 0
3:55 am 03:55 Mostly Cloudy 41 5 38 3.4 90 90 NNW 12 19 30 1016 7 11.265408 0 0
4:15 am 04:15 Cloudy 40 4.6 37 3 89 89 N 9 15 30 1016 7 11.265408 0 0
4:35 am 04:35 Mostly Cloudy 40 4.5 37 2.9 89 89 NW 9 15 30 1016 7 11.265408 0 0
4:55 am 04:55 Partly Cloudy 39 4 37 2.6 91 91 NW 15 24 30.03 1017 7 11.265408 0 0
5:15 am 05:15 Mostly Cloudy 39 4.1 37 2.8 91 91 NW 13 20 30.03 1017 7 11.265408 0 0
5:35 am 05:35 Cloudy 40 4.3 37 3 91 91 NW 12 19 30.03 1017 7 11.265408 0 0
5:55 am 05:55 Cloudy 40 4.3 37 3 91 91 NW 9 15 30.06 1018 7 11.265408 0 0
6:15 am 06:15 Cloudy 40 4.3 37 3 91 91 WNW 9 15 30.06 1018 7 11.265408 0 0
6:35 am 06:35 Cloudy 39 4.1 37 2.7 91 91 NW 9 15 30.06 1018 7 11.265408 0 0
6:55 am 06:55 Cloudy 39 4.1 37 2.8 91 91 NW 9 15 30.06 1018 7 11.265408 0 0
7:15 am 07:15 Cloudy 40 4.5 38 3.1 91 91 NW 8 13 30.06 1018 7 11.265408 0 0
7:35 am 07:35 Cloudy 40 4.6 38 3.3 91 91 N 7 11 30.06 1018 7 11.265408 0 0
7:55 am 07:55 Cloudy with Mist and Fog 41 4.8 38 3.5 91 91 NNW 6 9 30.06 1018 5 8.04672 0 0
8:15 am 08:15 Cloudy with Mist and Fog 41 4.8 38 3.5 91 91 NW 3 6 30.09 1019 5 8.04672 0 0
8:35 am 08:35 Cloudy 41 5.1 39 3.7 91 91 NW 8 13 30.09 1019 7 11.265408 0 0
8:55 am 08:55 Cloudy 42 5.3 38 3.6 89 89 NW 7 11 30.09 1019 7 11.265408 0 0
9:15 am 09:15 Cloudy 42 5.5 38 3.6 88 88 NNW 9 15 30.09 1019 7 11.265408 0 0
9:35 am 09:35 Cloudy 42 5.7 39 3.7 87 87 NNW 7 11 30.09 1019 7 11.265408 0 0
9:55 am 09:55 Cloudy 43 6.1 39 4 87 87 N 9 15 30.09 1019 10 16.09344 0 0
10:15 am 10:15 Cloudy 43 6.3 39 4 85 85 N 8 13 30.09 1019 10 16.09344 0 0
10:35 am 10:35 Cloudy 44 6.9 40 4.3 84 84 N 8 13 30.09 1019 10 16.09344 0 0
10:55 am 10:55 Cloudy 45 7 40 4.5 84 84 N 9 15 30.12 1020 10 16.09344 0 0
11:15 am 11:15 Cloudy 45 7.3 40 4.5 83 83 NNE 8 13 30.12 1020 10 16.09344 0 0
11:35 am 11:35 Cloudy 46 7.5 40 4.6 82 82 N 10 17 30.09 1019 10 16.09344 0 0
11:55 am 11:55 Cloudy 46 7.5 41 4.8 83 83 N 10 17 30.09 1019 10 16.09344 0 0
12:15 pm 12:15 Cloudy 46 7.6 41 4.8 83 83 N 8 13 30.09 1019 10 16.09344 0 0
12:35 pm 12:35 Cloudy 46 7.8 41 4.8 82 82 NNW 8 13 30.09 1019 10 16.09344 0 0
12:55 pm 12:55 Cloudy 46 8 41 5 82 82 NNW 7 11 30.12 1020 10 16.09344 0 0
1:15 pm 13:15 Cloudy 47 8.3 41 5.2 81 81 NNW 9 15 30.12 1020 10 16.09344 0 0
1:35 pm 13:35 Cloudy 47 8.5 41 5.2 80 80 N 10 17 30.12 1020 10 16.09344 0 0
1:55 pm 13:55 Cloudy 48 9 42 5.6 79 79 NNW 10 17 30.12 1020 10 16.09344 0 0
2:15 pm 14:15 Cloudy 49 9.7 43 5.9 77 77 NNW 12 19 30.09 1019 7 11.265408 0 0
2:35 pm 14:35 Cloudy 50 9.9 43 6.1 77 77 NNW 12 19 30.09 1019 10 16.09344 0 0
2:55 pm 14:55 Cloudy 51 10.6 43 6.3 75 75 N 12 19 30.06 1018 10 16.09344 0 0
3:15 pm 15:15 Cloudy 51 10.8 44 6.4 74 74 N 13 20 30.06 1018 10 16.09344 0 0
3:35 pm 15:35 Cloudy 51 10.7 44 6.4 75 75 N 15 24 30.06 1018 10 16.09344 0 0
3:55 pm 15:55 Cloudy 51 10.8 43 6.3 74 74 N 14 22 30.06 1018 10 16.09344 0 0
4:15 pm 16:15 Cloudy 52 11 43 6.2 73 73 NNE 14 22 30.06 1018 10 16.09344 0 0
4:35 pm 16:35 Cloudy 53 11.4 43 6.2 71 71 NNE 14 22 30.06 1018 10 16.09344 0 0
4:55 pm 16:55 Cloudy 53 11.5 42 5.6 67 67 N 10 17 30.06 1018 10 16.09344 0 0
5:15 pm 17:15 Cloudy 53 11.5 41 4.8 64 64 NNE 9 15 30.06 1018 10 16.09344 0 0
5:35 pm 17:35 Cloudy 53 11.5 41 4.8 64 64 N 10 17 30.09 1019 10 16.09344 0 0
5:55 pm 17:55 Cloudy 53 11.4 41 5.2 66 66 N 7 11 30.09 1019 10 16.09344 0 0
6:15 pm 18:15 Cloudy 53 11.5 41 4.8 64 64 N 9 15 30.09 1019 10 16.09344 0 0
6:35 pm 18:35 Cloudy 53 11.5 42 5.3 66 66 N 7 11 30.09 1019 10 16.09344 0 0
6:55 pm 18:55 Cloudy 52 11.3 42 5.3 67 67 NNE 6 9 30.09 1019 10 16.09344 0 0
7:15 pm 19:15 Cloudy 52 11.1 42 5.4 68 68 NNE 3 6 30.09 1019 10 16.09344 0 0
7:35 pm 19:35 Cloudy 51 10.7 42 5.5 71 71 N 5 7 30.15 1021 10 16.09344 0 0
7:55 pm 19:55 Cloudy 50 10.1 42 5.8 75 75 Calm 30.15 1021 10 16.09344 0 0
8:15 pm 20:15 Cloudy 50 10.2 42 5.6 73 73 Calm 30.15 1021 10 16.09344 0 0
8:35 pm 20:35 Cloudy 50 10 42 5.5 74 74 ENE 5 7 30.15 1021 10 16.09344 0 0
8:55 pm 20:55 Cloudy 49 9.6 41 5.2 74 74 NE 6 9 30.18 1022 10 16.09344 0 0
9:15 pm 21:15 Cloudy 49 9.3 41 5 75 75 NNE 5 7 30.18 1022 10 16.09344 0 0
9:35 pm 21:35 Cloudy 49 9.2 41 4.8 74 74 NNE 10 17 30.18 1022 10 16.09344 0 0
9:55 pm 21:55 Cloudy 48 9 40 4.5 74 74 NNE 8 13 30.21 1023 10 16.09344 0 0
10:15 pm 22:15 Cloudy 47 8.6 40 4.5 76 76 NNE 7 11 30.21 1023 10 16.09344 0 0
10:35 pm 22:35 Cloudy 47 8.4 40 4.3 76 76 NNE 8 13 30.24 1024 10 16.09344 0 0
10:55 pm 22:55 Cloudy 47 8.1 39 4 76 76 NNE 8 13 30.24 1024 10 16.09344 0 0
11:15 pm 23:15 Cloudy 46 7.8 39 3.9 77 77 NE 9 15 30.24 1024 10 16.09344 0 0
11:35 pm 23:35 Cloudy 46 7.7 39 4 78 78 NNE 8 13 30.27 1025 10 16.09344 0 0
11:55 pm 23:55 Cloudy 46 7.5 39 3.8 78 78 NE 8 13 30.27 1025 10 16.09344 0 0

Powered by AerisWeather